Location: ??????
(37.9695°N, 23.6936°E)
Time: 02:59:42
(UTC+00:00)

Daily predictions for brighter satellites

Satellite Brightness Start Highest point End
(mag) Time Altitude Azimuth Time Altitude Azimuth Time Altitude Azimuth
USA 59 Rocket 1.6 00:05:46 23° N 00:05:46 23° N 00:07:05 10° NNE
Cosmos 44 Rocket 3.5 00:06:30 63° NW 00:06:30 63° NW 00:11:27 10° NNE
Cosmos 2016 Rocket 4.1 00:07:03 55° WSW 00:07:43 58° W 00:13:59 10° N
ATLAS CENTAUR R/B 3.4 00:08:16 42° SE 00:08:51 43° ESE 00:16:24 10° NE
Cosmos 2233 Rocket 3.9 00:09:44 66° SSW 00:10:42 83° W 00:17:01 10° N
Gbstr 26 Del rocket 3.9 00:05:49 10° NW 00:11:48 88° NE 00:19:03 10° SE
SL-16 R/B 4.3 00:07:19 10° ESE 00:12:21 27° ENE 00:17:24 10° N
Meteor 1-27 Rocket 3.8 00:08:34 10° N 00:14:25 74° E 00:15:43 54° SSE
H-2A R/B 4.0 00:11:17 10° NNE 00:14:43 55° ENE 00:14:43 55° ENE
Cosmos 1725 Rocket 4.3 00:16:21 46° W 00:17:05 48° W 00:23:10 10° N
Cosmos 1656 4.1 00:16:58 45° SE 00:17:46 48° ESE 00:23:01 10° NNE
USA 234 3.8 00:12:14 10° NE 00:18:31 51° NW 00:21:28 30° W
Lacrosse 5 rocket 3.6 00:19:11 14° NW 00:20:06 15° NNW 00:22:26 10° N
Cosmos 1302 Rocket 4.0 00:20:28 65° SE 00:20:56 69° ESE 00:26:09 10° NNE
Meteor 1-25 Rocket 4.1 00:22:18 66° SW 00:23:06 79° W 00:28:55 10° N
CZ-2C R/B 2.8 00:22:06 49° SSE 00:23:38 78° ENE 00:29:15 10° N
CZ-2C R/B 2.8 00:20:18 10° NNE 00:25:02 72° ESE 00:25:23 68° SE
Meteor 1-19 Rocket 4.2 00:20:19 10° N 00:26:11 85° W 00:27:30 57° S
Cosmos 1461 4.1 00:26:02 10° NNW 00:28:08 31° NW 00:28:08 31° NW
Cosmos 968 Rocket 3.3 00:31:44 10° NNW 00:36:59 86° WSW 00:38:06 57° SSE
Cosmos 1626 3.2 00:37:29 10° N 00:40:09 34° ENE 00:40:09 34° ENE
SJ 16-02 1.4 00:39:02 10° NNW 00:43:26 75° ENE 00:44:16 55° SE
Cosmos 1464 Rocket 4.5 00:41:19 28° SSE 00:44:28 55° E 00:50:26 10° NNE
Cosmos 2344 3.5 00:43:40 38° SW 00:46:51 71° NW 00:54:06 10° NNE
CZ-2D R/B 2.1 00:42:10 10° N 00:47:20 68° WNW 00:48:24 53° SW
Cosmos 1850 Rocket 4.4 00:48:50 10° NNW 00:53:39 41° W 00:53:39 41° W
Lacrosse 5 3.7 00:50:18 10° NNW 00:54:51 32° NE 00:59:25 10° ESE
FENGYUN 3A 3.6 00:50:07 10° NNE 00:55:33 84° WNW 00:57:20 45° SSW
NPP 4.3 00:51:22 10° N 00:56:21 40° WNW 00:57:32 35° W
Cosmos 1992 Rocket 4.0 00:55:45 43° S 00:57:26 73° ESE 01:02:37 10° NNE
DELTA 2 R/B (1) 3.5 00:56:30 37° W 00:58:46 86° NNW 01:04:21 10° ENE
Envisat 4.4 00:57:56 10° NNE 01:02:30 33° E 01:06:06 15° SSE
CENTAUR R/B 3.4 00:54:42 10° NW 01:03:15 61° WSW 01:12:23 10° SSE
Meteor 1-5 Rocket 4.2 01:02:15 43° SW 01:03:56 66° W 01:09:19 10° N
Cosmos 1151 Rocket 2.9 00:59:52 10° NNW 01:04:10 68° W 01:04:52 56° SSW
Meteor 1-28 Rocket 3.4 01:03:33 43° SE 01:04:31 64° ENE 01:08:05 10° N
AQUA 3.7 01:02:54 10° N 01:07:39 83° WNW 01:09:09 44° SSW
USA 32 4.1 01:03:06 10° N 01:08:21 79° E 01:11:28 25° S
Cosmos 1726 2.3 01:09:00 45° ESE 01:09:10 46° E 01:12:04 10° NNE
Cosmos 2227 Rocket 4.2 01:07:15 10° N 01:12:05 28° ENE 01:16:53 10° ESE
Cosmos 1697 Rocket 3.1 01:11:53 26° S 01:14:54 57° ESE 01:20:24 10° NNE
Cosmos 1066 Rocket 4.4 01:13:33 10° N 01:18:54 66° E 01:24:18 10° SSE
Okean 3 Rocket 4.4 01:17:16 19° SSE 01:20:05 47° E 01:24:20 10° NNE
Meteor 2-4 Rocket 3.6 01:16:30 10° NNW 01:21:49 62° W 01:24:46 27° SSW
ALOS 2.2 01:17:28 10° N 01:22:05 76° WNW 01:23:59 35° SSW
Tiangong -1.7 01:23:04 44° WNW 01:23:40 55° NNW 01:26:44 10° ENE
Resurs 1-4 Rocket 3.3 01:22:52 10° N 01:27:18 28° WNW 01:29:11 22° W
Cosmos 2297 Rocket 2.4 01:22:33 10° NNW 01:28:14 76° ENE 01:33:52 10° SSE
COSMOS 2455 4.4 01:26:58 10° WNW 01:29:57 17° W 01:29:57 17° W
CZ-2C R/B 3.7 01:26:58 10° NNE 01:31:32 37° E 01:36:11 10° SSE
ADEOS II 2.8 01:28:28 10° N 01:33:17 38° WNW 01:35:31 26° WSW
Meteor 1-18 Rocket 4.2 01:27:54 10° NNW 01:33:27 63° W 01:37:39 18° S
NOSS 3-2 (A) 4.3 01:26:03 10° NW 01:33:45 57° WSW 01:42:30 10° SSE
Meteor 2-17 Rocket 4.5 01:31:50 10° NNW 01:37:54 64° W 01:42:57 15° S
Cosmos 1867 4.5 01:32:55 10° NNW 01:38:17 52° NE 01:43:34 10° SE
OAO 3 Rocket 3.6 01:38:37 27° WSW 01:40:35 40° SSW 01:45:06 10° SE
Cosmos 1674 2.5 01:37:45 10° N 01:41:07 73° E 01:43:47 15° SSE
SAR-Lupe-4 3.5 01:43:09 10° N 01:46:40 64° WNW 01:48:20 28° SSW
Cosmos 1980 Rocket 3.0 01:42:03 11° S 01:47:14 49° ESE 01:52:42 10° NNE
METEOR-M 4.1 01:42:15 10° NNE 01:47:37 86° ESE 01:52:09 15° SSW
Uosat 12 SS-18 rocket 4.3 01:43:56 10° NW 01:48:04 46° WSW 01:52:32 10° S
Cosmos 1733 4.1 01:46:40 10° SSE 01:49:55 42° E 01:53:15 10° NNE
Cosmos 1743 4.0 01:50:30 20° W 01:51:12 22° WNW 01:54:05 10° NNW
NOSS 3-4 (C) 3.2 01:51:21 21° SW 01:55:04 75° NW 02:00:55 10° NNE
NOSS 3-4 (A) 3.2 01:51:48 21° SW 01:55:27 72° NW 02:01:13 10° NNE
SL-16 R/B 2.8 01:50:08 12° S 01:55:37 46° W 02:01:32 10° NNW
Meteor 1-14 Rocket 4.5 01:53:21 17° SSW 01:57:57 60° W 02:03:52 10° N
H-2A R/B 3.8 01:53:54 10° NE 01:58:05 27° E 02:02:14 10° SSE
Cosmos 1400 Rocket 3.5 01:54:20 10° N 01:58:10 54° E 02:02:01 10° SSE
YAOGAN 6 2.9 01:55:09 10° NNE 01:58:17 53° E 02:01:12 11° S
Cosmos 1515 Rocket 3.6 01:54:46 10° N 01:59:13 82° E 02:03:37 10° S
UNK 3.8 01:55:44 10° S 02:00:07 54° W 02:04:35 10° NNW
NOAA 11 4.1 01:54:50 10° N 02:00:15 76° WNW 02:05:11 13° SSW
Sich 1 3.8 01:58:38 10° SSE 02:02:48 50° E 02:06:58 10° NNE
ATLAS CENTAUR R/B 4.2 01:58:52 13° W 02:04:03 44° NNW 02:13:25 10° NE
NOSS 3-2 (C) 4.2 01:57:46 10° NW 02:05:36 69° WSW 02:14:34 10° SSE
Cosmos 1536 2.8 02:03:39 15° SSW 02:06:46 63° W 02:10:42 10° N
Cosmos 1842 3.1 02:04:27 10° NNW 02:08:07 63° W 02:11:46 10° S
Cosmos 1743 Rocket 4.4 02:04:22 10° SSE 02:08:40 51° E 02:13:00 10° NNE
Cosmos 2034 Rocket 4.4 02:04:04 15° SSW 02:09:04 46° WNW 02:15:11 10° N
Cosmos 2219 4.2 02:13:50 10° NNW 02:19:22 53° ENE 02:24:56 10° SE
Cosmos 1340 3.6 02:19:21 15° SW 02:21:21 26° WNW 02:24:12 10° NNW
Cosmos 1356 Rocket 4.3 02:18:37 10° N 02:22:26 49° E 02:26:13 10° SSE
In-Cosmos 22 4.2 02:18:13 10° N 02:23:40 85° E 02:29:12 10° S
Cosmos 304 Rocket 3.7 02:19:22 10° NNW 02:24:07 67° WSW 02:28:51 10° S
Cosmos 2369 3.9 02:18:43 10° SSW 02:24:23 75° ESE 02:30:07 10° NNE
Cosmos 1707 2.9 02:23:30 10° NNW 02:26:59 44° W 02:30:26 10° SSW
GEOS 3 Rocket 3.7 02:23:08 10° NNE 02:28:15 68° NW 02:33:16 10° SW
Cosmos 1486 Rocket 4.1 02:23:47 10° NNW 02:28:59 56° WSW 02:34:09 10° S
Cosmos 1500 Rocket 3.6 02:25:12 10° SSW 02:29:29 65° W 02:33:50 10° N
Meteor 2-12 Rocket 4.4 02:28:39 10° N 02:34:43 87° W 02:40:46 10° S
Lacrosse 5 2.2 02:33:08 10° NW 02:37:54 42° SW 02:42:40 10° SSE
Envisat 4.2 02:37:07 10° NNW 02:41:18 26° WNW 02:45:27 10° WSW
Cosmos 2026 Rocket 4.4 02:37:19 10° NNW 02:43:16 46° W 02:49:15 10° SSW
IRS-1D 3.7 02:40:09 10° N 02:44:57 54° WNW 02:49:45 10° SSW
DELTA 2 R/B (1) 3.8 02:39:47 10° W 02:45:22 78° N 02:50:56 10° E
Atlas Centaur 2 3.9 02:38:42 10° SW 02:45:26 30° SSE 02:51:22 10° ESE
Meteor 2-9 Rocket 4.5 02:40:22 10° SSW 02:46:04 56° W 02:51:42 10° N
ATLAS 5 CENTAUR R/B 2.6 02:43:54 10° NNW 02:49:05 72° ENE 02:55:31 10° SE
Cosmos 1634 Rocket 4.5 02:43:57 10° SSW 02:49:45 42° WNW 02:55:34 10° N
Cosmos 2263 Rocket 2.5 02:47:24 10° NNW 02:53:01 74° ENE 02:58:39 10° SSE
